TimeEDT,TemperatureF,Dew PointF,Humidity,Sea Level PressureIn,VisibilityMPH,Wind Direction,Wind SpeedMPH,Gust SpeedMPH,PrecipitationIn,Events,Conditions,WindDirDegrees,DateUTC
12:56 AM,47.8,31.1,52,29.68,8.0,SSE,9.2,-,N/A,,Overcast,150,2012-10-19 04:56:00
1:56 AM,48.9,31.1,50,29.67,8.0,South,8.1,-,N/A,,Overcast,170,2012-10-19 05:56:00
2:56 AM,48.9,32.0,52,29.66,8.0,South,10.4,-,N/A,,Mostly Cloudy,170,2012-10-19 06:56:00
3:56 AM,46.9,32.0,56,29.64,8.0,SSE,10.4,-,N/A,,Clear,160,2012-10-19 07:56:00
4:56 AM,45.0,32.9,63,29.62,8.0,SSE,9.2,-,N/A,,Clear,160,2012-10-19 08:56:00
5:56 AM,45.9,32.9,61,29.62,8.0,SSE,9.2,-,N/A,,Clear,160,2012-10-19 09:56:00
6:56 AM,46.9,32.9,58,29.64,8.0,South,10.4,-,N/A,,Mostly Cloudy,190,2012-10-19 10:56:00
7:56 AM,45.9,34.0,63,29.63,8.0,SSE,9.2,-,N/A,,Overcast,150,2012-10-19 11:56:00
8:56 AM,46.9,34.0,61,29.63,6.0,SSE,10.4,-,N/A,,Haze,160,2012-10-19 12:56:00
9:56 AM,48.9,34.0,56,29.63,7.0,South,9.2,-,N/A,,Mostly Cloudy,170,2012-10-19 13:56:00
10:56 AM,50.9,32.9,50,29.62,7.0,SSW,9.2,-,N/A,,Mostly Cloudy,200,2012-10-19 14:56:00
11:56 AM,52.9,32.9,47,29.62,6.0,SW,11.5,-,N/A,,Haze,220,2012-10-19 15:56:00
12:56 PM,52.9,32.9,47,29.61,6.0,SSW,9.2,-,N/A,,Haze,200,2012-10-19 16:56:00
1:56 PM,52.0,34.9,52,29.59,6.0,South,10.4,-,N/A,,Haze,190,2012-10-19 17:56:00
2:56 PM,52.0,36.0,54,29.59,5.0,SW,12.7,-,N/A,,Haze,220,2012-10-19 18:56:00
3:56 PM,47.8,39.9,74,29.63,3.0,SW,11.5,-,0.01,,Haze,220,2012-10-19 19:56:00
4:56 PM,45.9,41.9,86,29.65,3.0,SW,12.7,-,0.04,,Overcast,220,2012-10-19 20:56:00
5:09 PM,46.4,42.8,87,29.64,4.0,SSW,12.7,-,0.01,,Overcast,210,2012-10-19 21:09:00
5:36 PM,44.6,42.8,93,29.64,3.0,SW,10.4,-,0.02,,Overcast,220,2012-10-19 21:36:00
5:46 PM,44.6,41.0,87,29.65,4.0,SSW,11.5,-,0.02,,Overcast,210,2012-10-19 21:46:00
5:56 PM,45.0,41.0,86,29.66,5.0,SW,11.5,-,0.02,,Mostly Cloudy,220,2012-10-19 21:56:00
6:08 PM,44.6,41.0,87,29.65,5.0,SW,11.5,-,N/A,,Overcast,230,2012-10-19 22:08:00
6:15 PM,44.6,41.0,87,29.66,5.0,SW,12.7,-,N/A,,Mostly Cloudy,230,2012-10-19 22:15:00
6:56 PM,43.9,39.9,86,29.68,5.0,SW,10.4,-,0.01,,Overcast,230,2012-10-19 22:56:00
7:26 PM,44.6,41.0,87,29.67,5.0,SW,10.4,-,N/A,,Overcast,220,2012-10-19 23:26:00
7:38 PM,44.6,41.0,87,29.67,6.0,SW,10.4,-,0.01,,Overcast,220,2012-10-19 23:38:00
7:56 PM,43.9,41.0,90,29.68,7.0,SSW,10.4,-,0.01,,Overcast,210,2012-10-19 23:56:00
8:11 PM,44.6,41.0,87,29.68,7.0,SW,10.4,-,N/A,,Overcast,220,2012-10-20 00:11:00
8:32 PM,44.6,41.0,87,29.68,3.0,SW,9.2,-,N/A,,Mostly Cloudy,220,2012-10-20 00:32:00
8:56 PM,43.9,41.9,93,29.70,4.0,SW,11.5,-,N/A,,Overcast,220,2012-10-20 00:56:00
9:43 PM,44.6,41.0,87,29.69,8.0,SW,12.7,-,N/A,,Overcast,220,2012-10-20 01:43:00
9:56 PM,43.9,41.0,90,29.70,8.0,SW,11.5,-,N/A,,Overcast,220,2012-10-20 01:56:00
10:07 PM,44.6,41.0,87,29.70,7.0,SW,10.4,-,N/A,,Overcast,220,2012-10-20 02:07:00
10:56 PM,43.9,41.0,90,29.70,7.0,SW,13.8,-,N/A,,Overcast,220,2012-10-20 02:56:00
11:21 PM,44.6,41.0,87,29.69,7.0,SW,13.8,-,N/A,,Mostly Cloudy,220,2012-10-20 03:21:00
11:29 PM,44.6,41.0,87,29.69,7.0,SW,10.4,-,N/A,,Overcast,220,2012-10-20 03:29:00
11:42 PM,44.6,41.0,87,29.70,7.0,SW,10.4,-,N/A,,Overcast,220,2012-10-20 03:42:00
11:56 PM,43.9,41.0,90,29.71,7.0,SW,10.4,-,N/A,,Overcast,220,2012-10-20 03:56:00